Iridium
NORAD ID: 27373
Int'l Code: 2002-005B
Perigee: 753.4 km
Apogee: 758.4 km
Inclination: 86.4°
Period: 99.8 min
Semi major axis: 7,126.9 km
Launch date: February 11, 2002
Source: United States (US)
Comments: Spare; stored in 667 km storage orbit, not raised to 780 km operational orbit until needed
Two Line Element Set (TLE):
1 27373U 02005B 10251.25173813 .00000188 00000-0 50230-4 0 6312
2 27373 086.4479 303.9892 0003447 333.8851 026.2186 14.42953475454603
More details about IRIDIUM 90